Hourly Data Report for September 22, 2017

All times are specified in Local Standard Time (LST). Add 1 hour to adjust for Daylight Saving Time where and when it is observed.

SUMMERSIDE
PRINCE EDWARD ISLAND

46°26'28.000" N
63°50'17.000" W
12.20 m
8300596
71702
WSD

Download Data

Hourly Data (September 2017)
Hourly Data Report for September 22, 2017
Temp Definition
°C
Dew Point Temp Definition
°C
Rel Hum Definition
%
Wind Dir Definition
10's deg

Wind Spd Definition
km/h
Visibility Definition
km
Stn Press Definition
kPa
Hmdx Definition


Wind Chill Definition


Weather Definition


TIME
00:00 8.4 6.6 88 12 6   102.17     LegendNANA
01:00 6.8 5.2 90 17 7   102.20     LegendNANA
02:00 6.5 5.6 94 24 2   102.19     LegendNANA
03:00 5.6 4.8 95 2 2   102.19     LegendNANA
04:00 5.3 4.5 95 18 2   102.15     LegendNANA
05:00 4.3 3.7 96 12 4   102.14     LegendNANA
06:00 4.0 3.4 96 19 3   102.16     LegendNANA
07:00 6.5 6.0 97 5 3   102.19     LegendNANA
08:00 12.3 9.8 85 7 6   102.20     LegendNANA
09:00 15.0 10.0 72 13 4   102.22     LegendNANA
10:00 16.3 8.8 61 10 2   102.18     LegendNANA
11:00 17.9 10.3 61 22 5   102.10     LegendNANA
12:00 19.3 9.9 54 30 4   102.06     LegendNANA
13:00 19.6 10.4 55 5 5   102.02     LegendNANA
14:00 18.3 11.4 64 4 15   101.98     LegendNANA
15:00 19.0 11.1 60 7 6   101.90     LegendNANA
16:00 18.8 11.4 62 21 7   101.89     LegendNANA
17:00 18.8 11.0 60 0 1   101.86     LegendNANA
18:00 15.4 11.9 80 19 10   101.82     LegendNANA
19:00 14.3 10.0 75 15 4   101.83     LegendNANA
20:00 11.3 9.0 86 18 4   101.78     LegendNANA
21:00 11.2 9.1 87 16 3   101.75     LegendNANA
22:00 11.2 8.7 85 15 5   101.74     LegendNANA
23:00 10.7 9.5 92 18 8   101.72     LegendNANA

Notes on Data Quality.

Legend

  • E = Estimated
  • M = Missing
  • NA = Not Available
  • ‡ = Partner data that is not subject to review by the National Climate Archives
Date modified: